Terug naar catalogus

MICROSCOPE

ActiefWetenschapSSO
NORAD 41457·PAYLOAD·🇫🇷 France

Gelanceerd Apr 25, 2016 vanaf Guiana Space Centre

Loading…

Volgende Passages (komende 24 uur)

TLE

VersSource: Space-Track

Epoch: Sep 14, 2026, 12:00 UTC

1 41457U 16025B   26257.50037324  .00000552  00000-0  12552-3 0  9991
2 41457  98.2456 269.6244 0000937  82.3663 277.7643 14.59703894551756

Volg MICROSCOPE in realtime met AllMySat

Download on the App Store